Wind_Speed
14 22 26 28 27 26 24 22 20 18 17 12 8 6 6 8 8 8 9 10 11 11 12 12 12 12 11 10 9 9 10 11 10 8 5 4 7 8 10 9 7 7 6
15 26 25 26 28 27 24 23 20 18 16 12 9 6 7 8 8 9 9 10 11 11 12 11 11 11 10 9 10 12 12 11 11 8 5 4 9 9 8 8 8 8 7
19 26 26 27 28 27 24 22 20 19 16 12 9 7 9 9 10 10 10 10 10 9 9 9 10 11 12 12 12 14 13 13 12 10 8 7 10 12 12 11 10 8 7
18 25 28 25 25 29 26 23 20 18 15 12 9 10 11 12 12 10 9 8 9 8 8 9 11 12 12 13 14 14 15 15 13 13 12 11 10 9 9 9 9 9 8
19 25 28 31 33 30 26 23 20 18 15 11 9 12 12 13 11 9 7 8 7 8 8 10 11 12 13 12 14 14 14 16 15 14 13 12 10 10 9 9 8 8 7
24 30 33 33 32 29 25 21 19 16 12 10 12 13 13 11 9 7 8 7 6 6 7 8 8 9 10 11 12 13 15 14 14 12 10 10 9 11 11 10 10 8 8
32 38 37 36 32 28 27 20 17 13 11 10 13 13 12 10 7 6 5 4 4 5 6 5 5 6 8 9 12 16 16 15 15 15 15 12 9 9 10 10 11 11 9
40 41 42 39 34 32 32 21 18 13 10 13 14 14 13 9 7 5 3 1 2 4 5 6 7 6 7 8 9 16 18 16 14 14 14 13 13 12 11 10 10 11 12
38 41 39 43 37 40 35 20 17 11 11 15 15 14 12 10 7 4 3 3 2 5 7 10 11 13 12 11 11 18 22 21 17 14 13 15 17 17 17 16 14 14 14
25 29 24 27 30 33 28 17 14 10 12 15 14 14 11 8 8 6 7 5 6 10 11 14 17 17 18 17 18 20 25 23 19 20 19 18 17 17 19 20 19 17 17
27 22 34 29 34 27 19 12 10 9 14 14 13 14 12 10 10 10 9 9 10 12 14 17 17 20 22 18 20 21 25 24 20 20 23 24 24 23 22 22 23 23 22
10 12 32 35 31 21 13 8 8 11 13 12 13 13 13 13 12 12 11 11 11 12 14 20 21 24 25 20 22 24 24 26 26 26 25 27 28 29 28 25 24 25 25
25 25 21 18 17 12 9 11 11 10 9 9 10 11 12 12 12 12 14 14 15 17 25 23 20 24 23 20 25 27 29 32 33 32 31 30 29 30 28 28 27 24 25
20 17 16 14 15 14 14 11 9 7 6 5 5 7 11 13 15 15 16 17 20 23 25 21 18 18 20 22 24 27 29 29 29 30 33 34 33 33 34 29 29 28 25
18 19 18 18 18 16 13 12 9 7 5 4 3 7 12 14 16 18 18 21 23 23 22 19 19 19 19 23 27 31 33 34 34 33 32 33 34 33 33 34 32 31 30
14 17 16 15 16 16 13 10 9 6 1 2 3 9 15 20 23 23 24 24 20 21 20 18 19 22 25 28 30 33 34 34 33 34 33 33 33 33 33 34 35 35 36
14 15 15 15 13 11 10 6 4 3 2 5 6 10 13 17 17 17 19 19 19 18 18 21 24 27 29 31 33 35 37 36 35 34 34 34 33 33 35 37 38 39 40
12 12 11 11 6 5 3 0 1 4 5 7 8 10 11 14 14 16 17 18 18 18 21 24 26 28 31 34 35 33 33 34 34 33 32 32 32 34 35 39 41 45 47
12 8 6 6 3 2 4 4 6 8 9 10 11 11 12 11 12 15 17 18 19 21 27 31 30 29 32 32 31 31 32 33 33 32 31 32 33 34 36 38 41 45 49
10 11 8 7 7 6 8 7 8 11 12 12 13 13 14 12 13 16 18 21 23 23 26 27 30 32 31 30 30 30 30 31 32 32 33 34 36 38 39 41 45 49 51
9 11 8 9 9 11 10 10 11 12 14 14 14 14 15 16 17 17 16 21 25 32 33 30 32 32 30 31 31 30 30 30 31 34 34 35 36 36 37 41 45 48 51
8 10 11 11 11 12 14 16 15 14 15 17 15 13 14 18 18 20 21 24 28 28 29 36 33 32 32 32 32 32 32 33 34 36 37 39 37 36 37 40 43 48 53
15 14 13 12 15 17 19 20 19 16 16 14 13 12 12 13 15 20 22 28 31 32 30 30 32 33 33 35 35 34 37 38 40 40 42 41 40 36 35 35 39 44 50
16 17 18 18 20 24 22 22 17 16 15 12 12 13 15 18 20 23 28 32 34 33 34 33 35 35 35 35 36 37 38 40 41 43 42 43 41 40 37 34 34 36 38
19 19 22 24 25 29 25 20 17 16 15 14 14 16 19 22 24 26 32 36 34 35 36 36 37 38 37 36 38 39 38 39 39 41 43 42 41 36 35 32 29 26 28
23 20 26 31 30 29 20 18 18 18 17 17 20 23 25 27 28 29 32 35 36 36 35 36 38 39 38 39 40 40 40 40 39 40 42 43 40 33 30 31 25 28 32
Wind_Direction
201 186 188 180 183 183 176 172 169 168 169 168 162 144 135 140 136 125 115 104 93 86 78 74 70 65 57 46 39 40 35 34 34 36 48 10 6 351 351 4 1 345 331
193 179 185 185 187 182 178 173 170 169 171 166 159 145 141 138 130 124 115 105 96 87 84 79 71 64 55 42 31 34 38 34 35 33 21 348 4 8 0 353 348 346 327
181 182 192 193 189 183 178 174 171 170 168 162 156 149 146 138 135 130 123 110 97 91 83 73 65 57 46 29 20 27 20 26 22 26 13 353 10 15 11 2 346 331 325
195 196 188 192 206 194 182 175 170 167 163 161 161 156 150 145 142 133 119 106 99 91 80 72 61 49 38 23 12 18 12 9 9 3 5 6 4 5 10 5 357 344 324
193 197 200 203 195 182 176 169 167 164 161 158 166 158 149 145 138 128 115 105 92 79 66 57 49 44 35 22 1 2 7 7 3 4 360 349 347 350 354 353 353 346 340
207 203 203 193 185 178 168 162 162 159 157 166 165 152 150 145 132 122 108 96 81 62 52 41 33 28 21 21 10 346 2 6 357 353 355 344 339 333 332 335 335 330 327
205 192 190 182 182 170 161 154 150 151 164 168 159 154 152 146 140 118 108 80 49 21 0 359 354 1 360 15 21 352 0 359 350 346 348 346 339 331 322 325 318 319 310
187 184 187 182 176 177 145 145 137 147 179 170 161 159 158 152 142 134 119 53 5 335 323 331 323 317 357 10 4 345 349 351 341 335 334 335 335 336 328 326 319 311 308
176 178 178 174 180 150 136 123 133 176 177 171 165 165 166 165 165 170 214 256 303 303 317 321 327 326 329 339 350 346 346 342 335 330 326 325 324 323 317 313 309 304 300
148 154 136 131 129 118 122 153 170 180 177 169 170 172 173 179 194 209 234 257 292 302 311 319 328 327 338 329 326 327 335 334 330 325 320 312 307 305 303 302 301 298 292
173 113 135 158 117 127 137 163 169 177 171 173 176 180 186 197 208 225 239 266 297 306 313 319 314 318 322 312 314 322 320 323 320 315 310 308 306 302 298 297 294 292 290
108 127 105 110 121 121 145 156 154 159 171 180 189 196 204 212 227 242 260 284 298 306 314 322 315 320 326 312 318 324 320 318 320 318 314 310 305 301 302 297 291 289 287
142 126 114 115 126 132 135 143 144 155 164 187 200 206 223 238 249 256 272 284 297 307 313 313 314 325 327 321 323 326 322 321 319 317 316 312 309 307 303 300 298 291 286
125 119 114 110 106 117 120 121 128 137 139 176 210 234 246 249 260 276 286 299 311 316 321 323 320 320 323 323 321 315 311 311 313 313 313 313 314 313 311 309 302 299 291
116 119 115 106 104 107 117 128 126 117 139 203 264 294 275 277 285 287 288 301 310 314 318 310 314 322 323 314 312 313 315 316 318 316 312 310 310 311 311 310 307 303 300
114 115 115 110 112 118 128 133 129 119 108 335 314 297 294 288 282 285 289 300 302 310 311 314 314 316 312 311 312 312 311 312 312 310 311 310 311 310 310 308 306 305 303
125 125 121 121 129 140 145 147 115 74 199 294 294 299 291 293 289 294 293 290 306 306 306 310 311 310 310 308 304 305 311 308 307 309 310 311 311 310 308 306 306 305 303
127 132 130 134 142 137 148 178 291 301 279 288 287 286 288 292 287 284 291 295 293 298 303 301 301 300 298 299 300 302 303 301 302 304 305 305 305 305 304 303 304 303 302
144 152 153 151 170 253 291 274 292 286 287 294 297 289 285 278 275 275 279 283 285 290 292 295 296 294 295 297 299 299 299 299 301 303 303 302 300 299 295 293 291 290 290
171 191 189 194 219 248 278 259 273 289 296 297 297 283 286 277 274 270 273 274 281 289 301 298 298 297 296 295 294 295 296 297 299 299 299 298 297 294 291 289 286 286 288
189 209 209 213 233 253 268 268 286 299 292 291 281 285 282 272 266 271 286 288 286 297 296 303 304 296 294 294 294 293 293 292 291 293 294 292 291 288 287 285 285 284 281
227 233 233 230 240 259 263 276 283 284 282 276 287 289 280 273 273 292 285 300 311 309 296 303 297 296 295 294 294 293 292 291 292 294 295 294 294 291 288 284 280 278 278
266 258 249 255 265 266 272 280 286 285 278 290 294 287 289 298 282 295 300 308 313 310 305 302 300 298 297 297 297 297 298 300 301 301 300 298 296 291 288 282 278 275 275
287 263 250 262 266 272 281 281 275 281 290 289 284 294 298 295 300 303 307 315 315 312 309 307 304 300 299 298 297 298 300 301 302 301 300 301 299 301 300 299 293 287 282
256 275 267 272 274 275 279 274 269 278 283 280 285 289 292 295 299 304 315 316 310 310 308 305 303 301 300 298 299 301 301 300 299 300 299 299 302 303 299 305 302 296 290
261 259 270 274 267 270 265 262 272 282 283 288 290 290 292 293 295 299 301 304 301 302 302 302 301 301 302 303 303 303 303 302 303 303 303 303 304 307 302 316 300 300 299
Height
3155 3158 3160 3162 3165 3167 3169 3171 3173 3174 3176 3177 3178 3178 3178 3178 3178 3179 3179 3179 3179 3178 3177 3177 3177 3176 3175 3173 3172 3172 3172 3172 3170 3170 3167 3166 3165 3165 3163 3163 3163 3162 3162
3153 3156 3159 3161 3163 3165 3167 3169 3172 3174 3175 3176 3178 3178 3178 3178 3179 3180 3180 3181 3180 3180 3179 3179 3177 3176 3175 3173 3172 3173 3173 3171 3171 3169 3167 3166 3165 3165 3164 3163 3161 3161 3161
3152 3154 3156 3160 3162 3164 3167 3169 3171 3172 3174 3175 3177 3177 3177 3179 3179 3180 3181 3182 3181 3181 3181 3179 3177 3176 3176 3174 3172 3172 3172 3171 3170 3169 3168 3167 3166 3165 3164 3163 3162 3162 3161
3151 3153 3156 3159 3163 3164 3165 3167 3170 3172 3173 3175 3176 3176 3177 3179 3179 3180 3183 3183 3182 3181 3181 3180 3179 3177 3177 3175 3173 3172 3170 3170 3170 3169 3168 3167 3166 3165 3164 3163 3162 3161 3161
3150 3151 3153 3155 3157 3160 3162 3166 3169 3171 3172 3174 3175 3177 3178 3180 3181 3182 3183 3184 3183 3183 3182 3181 3181 3179 3179 3177 3173 3172 3172 3170 3169 3169 3169 3168 3166 3166 3163 3162 3160 3160 3160
3144 3146 3149 3152 3155 3158 3161 3165 3169 3171 3172 3174 3175 3177 3179 3180 3181 3183 3184 3185 3184 3184 3183 3182 3181 3180 3179 3178 3174 3169 3173 3172 3170 3168 3169 3168 3166 3165 3164 3162 3161 3158 3158
3137 3139 3144 3148 3153 3155 3158 3164 3168 3171 3172 3174 3174 3177 3180 3180 3182 3183 3185 3185 3185 3185 3183 3182 3181 3180 3179 3178 3176 3171 3171 3172 3171 3168 3166 3165 3165 3165 3163 3162 3160 3159 3158
3132 3133 3137 3142 3146 3148 3155 3164 3167 3171 3172 3173 3174 3177 3179 3181 3182 3183 3184 3184 3184 3183 3182 3180 3180 3180 3180 3177 3176 3171 3170 3171 3170 3168 3167 3164 3162 3161 3161 3160 3159 3157 3157
3124 3127 3132 3133 3138 3142 3151 3161 3168 3171 3172 3174 3175 3178 3179 3180 3181 3182 3182 3183 3182 3181 3181 3180 3180 3180 3179 3178 3178 3172 3169 3169 3167 3166 3164 3163 3161 3159 3158 3158 3157 3155 3155
3133 3130 3123 3127 3141 3148 3154 3161 3166 3170 3172 3174 3176 3178 3179 3180 3180 3180 3181 3181 3180 3180 3180 3179 3179 3177 3177 3177 3175 3173 3168 3168 3165 3163 3163 3161 3159 3158 3156 3155 3154 3152 3151
3138 3135 3141 3141 3144 3148 3155 3161 3166 3170 3172 3174 3176 3177 3178 3179 3179 3179 3178 3178 3179 3179 3179 3178 3177 3174 3173 3173 3172 3172 3168 3166 3164 3161 3160 3158 3156 3155 3153 3152 3150 3148 3148
3141 3141 3140 3144 3146 3149 3156 3161 3165 3169 3171 3174 3175 3176 3176 3177 3177 3177 3178 3178 3178 3177 3177 3175 3173 3171 3168 3168 3167 3166 3165 3162 3161 3158 3156 3154 3151 3149 3147 3146 3146 3144 3143
3142 3141 3140 3145 3149 3153 3159 3163 3165 3169 3171 3172 3174 3176 3177 3178 3177 3176 3177 3177 3176 3175 3173 3171 3170 3168 3166 3165 3163 3162 3159 3156 3155 3153 3151 3148 3146 3144 3142 3140 3139 3139 3138
3144 3144 3145 3148 3150 3156 3160 3163 3166 3169 3170 3172 3174 3176 3176 3177 3176 3175 3173 3173 3172 3171 3169 3168 3167 3166 3164 3163 3162 3158 3154 3154 3152 3149 3144 3140 3139 3137 3133 3134 3132 3131 3132
3147 3147 3149 3151 3155 3159 3163 3165 3166 3169 3170 3172 3173 3173 3174 3174 3173 3172 3171 3169 3170 3169 3167 3166 3165 3164 3161 3161 3158 3154 3148 3145 3143 3141 3137 3135 3133 3131 3128 3125 3124 3123 3123
3149 3150 3152 3155 3159 3162 3165 3167 3168 3169 3169 3170 3170 3171 3170 3170 3170 3170 3170 3168 3167 3167 3166 3165 3163 3160 3158 3157 3154 3150 3146 3142 3139 3135 3132 3128 3126 3123 3121 3119 3116 3115 3113
3152 3153 3155 3159 3161 3164 3166 3167 3168 3168 3169 3169 3169 3169 3168 3168 3168 3167 3166 3165 3165 3164 3163 3161 3159 3155 3153 3151 3150 3145 3140 3136 3132 3130 3126 3123 3120 3117 3114 3111 3109 3108 3107
3153 3156 3158 3159 3161 3162 3164 3166 3167 3168 3168 3169 3168 3167 3167 3166 3166 3166 3163 3162 3163 3162 3160 3159 3155 3153 3150 3146 3143 3140 3135 3130 3126 3123 3121 3118 3114 3111 3108 3104 3102 3099 3096
3155 3157 3158 3161 3161 3162 3162 3164 3165 3167 3166 3166 3166 3165 3165 3163 3164 3164 3163 3161 3160 3159 3158 3154 3151 3148 3144 3140 3136 3132 3129 3124 3120 3118 3114 3111 3108 3105 3100 3097 3094 3091 3088
3155 3156 3158 3161 3161 3162 3162 3163 3164 3164 3164 3164 3163 3163 3161 3161 3162 3163 3161 3159 3158 3156 3153 3149 3145 3141 3137 3133 3129 3126 3122 3118 3114 3110 3107 3103 3099 3095 3092 3088 3084 3080 3076
3155 3155 3157 3159 3160 3159 3158 3160 3162 3163 3163 3162 3161 3161 3159 3159 3159 3159 3159 3157 3155 3151 3146 3142 3138 3134 3130 3126 3122 3119 3115 3111 3107 3102 3098 3094 3091 3089 3085 3081 3077 3073 3069
3154 3155 3156 3156 3155 3156 3158 3159 3159 3159 3160 3159 3158 3157 3157 3156 3156 3155 3153 3151 3147 3142 3138 3134 3129 3126 3122 3117 3113 3109 3105 3104 3099 3095 3090 3086 3083 3081 3078 3074 3070 3064 3059
3150 3151 3152 3154 3154 3154 3154 3154 3154 3155 3156 3155 3154 3153 3153 3152 3152 3150 3147 3143 3138 3134 3130 3125 3121 3117 3113 3108 3104 3101 3095 3091 3087 3084 3079 3075 3072 3070 3067 3063 3059 3055 3050
3145 3148 3149 3151 3149 3149 3149 3150 3151 3152 3151 3151 3151 3149 3148 3147 3145 3143 3139 3134 3129 3124 3121 3117 3113 3109 3105 3101 3096 3092 3087 3082 3077 3072 3068 3063 3059 3056 3053 3050 3049 3045 3042
3142 3143 3143 3144 3144 3144 3146 3147 3148 3149 3148 3147 3145 3144 3142 3140 3138 3134 3130 3125 3121 3117 3113 3109 3105 3101 3097 3092 3088 3083 3079 3073 3068 3063 3057 3053 3050 3047 3042 3041 3039 3036 3033
3140 3142 3141 3141 3141 3141 3142 3143 3144 3144 3143 3140 3138 3137 3135 3133 3129 3125 3121 3118 3113 3110 3106 3101 3097 3092 3087 3082 3077 3072 3067 3062 3057 3052 3048 3044 3042 3039 3036 3033 3032 3028 3025